Weather History for KUIL - May, 2012

Change the Weather History Date:

Wednesday, May 2, 2012

  Actual Average Record
Temperature  
Mean Temperature 47 °F 49 °F  
Max Temperature 54 °F 58 °F 77 °F (1991)
Min Temperature 39 °F 41 °F 33 °F (1974)
Degree Days  
Heating Degree Days 18 16  
Month to date heating degree days 32  
Since 1 July heating degree days 5074  
Cooling Degree Days 0 0  
Month to date cooling degree days 0  
Year to date cooling degree days 0  
Moisture  
Dew Point 41 °F    
Average Humidity 84    
Maximum Humidity 100    
Minimum Humidity 56    
Precipitation  
Precipitation 0.07 in 0.19 in 2.74 in (1975)
Month to date precipitation 0.38  
Year to date precipitation 44.02  
Sea Level Pressure  
Sea Level Pressure 29.93 in    
Wind  
Wind Speed 5 mph (ESE)    
Max Wind Speed 15 mph    
Max Gust Speed 18 mph    
Visibility 9 miles    
Events Rain    
T = Trace of Precipitation, MM = Missing Value Source: NWS Daily Summary

Daily Weather History Graph

Daily Weather History Graph

Search for Another Location

Airport or City:

Trip Planner

Search our weather history database for the weather conditions in past years. The results will help you decide how hot, cold, wet, or windy it might be!

Date:

Astronomy

May. 02, 2012 Rise Set
Actual Time 5:57 AM PDT 8:33 PM PDT
Civil Twilight 5:22 AM PDT 9:08 PM PDT
Nautical Twilight 4:38 AM PDT 9:53 PM PDT
Astronomical Twilight 3:47 AM PDT 10:44 PM PDT
Moon 4:38 PM PDT (5/2) 3:48 AM PDT (5/2)
Length of Visible Light 15h 45m
Length of Day
14h 35m
Waxing Gibbous, 84% of the Moon is Illuminated
May 2
Waxing Gibbous
May 5
Full
May 12
Last Quarter
May 20
New
May 28
First Quarter

Hourly Weather History & Observations

Time (PDT) Temp. Windchill Dew Point Humidity Pressure Visibility Wind Dir Wind Speed Gust Speed Precip Events Conditions
12:02 AM 42.8 °F 40.1 °F 41.0 °F 93% 29.95 in 10.0 mi East 4.6 mph - N/A   Overcast
12:53 AM 42.1 °F 40.2 °F 39.9 °F 92% 29.96 in 10.0 mi ENE 3.5 mph - N/A   Overcast
1:08 AM 42.8 °F - 41.0 °F 93% 29.96 in 10.0 mi Calm Calm - N/A   Overcast
1:36 AM 42.8 °F - 41.0 °F 93% 29.96 in 7.0 mi Calm Calm - 0.00 in Rain Light Rain
1:49 AM 42.8 °F - 41.0 °F 93% 29.96 in 3.0 mi Calm Calm - 0.01 in Rain Light Rain
1:53 AM 43.0 °F - 41.0 °F 93% 29.97 in 2.5 mi Calm Calm - 0.01 in Rain Light Rain
1:55 AM 42.8 °F - 41.0 °F 93% 29.96 in 3.0 mi Calm Calm - 0.00 in Rain Light Rain
2:05 AM 42.8 °F - 41.0 °F 93% 29.96 in 5.0 mi Calm Calm - 0.00 in Rain Light Rain
2:34 AM 42.8 °F - 41.0 °F 93% 29.96 in 4.0 mi Calm Calm - 0.01 in Rain Light Rain
2:53 AM 42.1 °F 40.2 °F 41.0 °F 96% 29.96 in 10.0 mi East 3.5 mph - 0.02 in Rain Light Rain
3:00 AM 42.8 °F 41.1 °F 41.0 °F 93% 29.95 in 10.0 mi East 3.5 mph - 0.00 in   Overcast
3:53 AM 39.9 °F 36.7 °F 39.0 °F 97% 29.96 in 10.0 mi ENE 4.6 mph - 0.00 in   Partly Cloudy
4:53 AM 39.0 °F - 37.9 °F 96% 29.96 in 10.0 mi Calm Calm - N/A   Overcast
5:21 AM 39.2 °F - 37.4 °F 93% 29.96 in 10.0 mi Calm Calm - N/A   Overcast
5:53 AM 41.0 °F - 39.9 °F 96% 29.96 in 10.0 mi Calm Calm - 0.00 in Rain Light Rain
6:21 AM 39.2 °F - 39.2 °F 100% 29.96 in 7.0 mi Calm Calm - 0.01 in Rain Light Rain
6:53 AM 42.1 °F 40.2 °F 39.9 °F 92% 29.97 in 10.0 mi NE 3.5 mph - 0.02 in   Overcast
7:45 AM 44.6 °F 42.2 °F 41.0 °F 87% 29.97 in 10.0 mi ENE 4.6 mph - 0.01 in   Overcast
7:53 AM 44.1 °F 40.8 °F 42.1 °F 93% 29.97 in 10.0 mi East 5.8 mph - 0.01 in   Overcast
8:11 AM 44.6 °F 42.2 °F 42.8 °F 93% 29.97 in 10.0 mi East 4.6 mph - N/A   Mostly Cloudy
8:21 AM 44.6 °F 43.1 °F 42.8 °F 93% 29.97 in 10.0 mi SE 3.5 mph - N/A   Overcast
8:53 AM 45.0 °F 42.6 °F 42.1 °F 90% 29.98 in 10.0 mi SSE 4.6 mph - N/A   Overcast
9:05 AM 46.4 °F 44.3 °F 42.8 °F 87% 29.97 in 10.0 mi SSE 4.6 mph - N/A   Overcast
9:53 AM 46.9 °F - 39.9 °F 77% 29.98 in 10.0 mi SSE 6.9 mph - N/A   Overcast
10:12 AM 48.2 °F - 41.0 °F 76% 29.97 in 10.0 mi Variable 4.6 mph - 0.00 in   Overcast
10:24 AM 48.2 °F - 41.0 °F 76% 29.97 in 10.0 mi SSW 3.5 mph - 0.00 in   Mostly Cloudy
10:53 AM 50.0 °F - 39.9 °F 68% 29.96 in 10.0 mi Variable 5.8 mph - 0.00 in   Scattered Clouds
11:53 AM 50.0 °F - 41.0 °F 71% 29.95 in 10.0 mi South 8.1 mph - N/A   Mostly Cloudy
12:53 PM 51.1 °F - 41.0 °F 68% 29.95 in 10.0 mi SW 9.2 mph 18.4 mph 0.00 in   Mostly Cloudy
1:53 PM 51.1 °F - 41.0 °F 68% 29.94 in 10.0 mi South 9.2 mph - N/A   Overcast
2:53 PM 52.0 °F - 41.0 °F 66% 29.93 in 10.0 mi SSE 9.2 mph - N/A   Mostly Cloudy
3:29 PM 51.8 °F - 41.0 °F 67% 29.92 in 10.0 mi Variable 6.9 mph - N/A   Overcast
3:46 PM 51.8 °F - 41.0 °F 67% 29.91 in 10.0 mi SSW 6.9 mph - N/A   Mostly Cloudy
3:53 PM 52.0 °F - 39.9 °F 63% 29.91 in 10.0 mi SSW 9.2 mph - N/A   Mostly Cloudy
4:53 PM 51.1 °F - 39.9 °F 66% 29.90 in 10.0 mi SSW 5.8 mph - N/A   Partly Cloudy
5:53 PM 50.0 °F - 39.9 °F 68% 29.88 in 10.0 mi Variable 4.6 mph - N/A   Overcast
6:43 PM 50.0 °F - 41.0 °F 71% 29.86 in 10.0 mi ESE 4.6 mph - N/A   Overcast
6:53 PM 48.9 °F - 41.0 °F 74% 29.86 in 10.0 mi East 4.6 mph - N/A   Overcast
7:05 PM 48.2 °F - 41.0 °F 76% 29.85 in 10.0 mi East 4.6 mph - N/A   Overcast
7:53 PM 46.9 °F - 43.0 °F 86% 29.84 in 8.0 mi East 5.8 mph - 0.00 in Rain Light Rain
8:53 PM 45.0 °F 43.5 °F 43.0 °F 93% 29.83 in 10.0 mi Variable 3.5 mph - 0.01 in Rain Light Rain
9:53 PM 45.0 °F 43.5 °F 43.0 °F 93% 29.81 in 10.0 mi NE 3.5 mph - 0.00 in Rain Light Rain
10:53 PM 44.1 °F - 43.0 °F 96% 29.79 in 10.0 mi Calm Calm - 0.00 in Rain Light Rain
11:53 PM 44.1 °F 42.5 °F 43.0 °F 96% 29.76 in 10.0 mi NE 3.5 mph - 0.00 in Rain Light Rain